Home   Weather   Alice Springs   Past weeks
Flag for Australia

Past Weather in Alice Springs, Northern Territory, Australia — Yesterday and Last 2 Weeks

Now
90 °F

Clear.


Feels Like: 88 °F
Forecast: 105 / 83 °F
Wind: 9 mph from North

Location: Alice Springs Aerodrome

Current Time: Jan 17, 2019 at 3:53:05 am

Latest Report: Jan 17, 2019 at 3:30 am


Visibility: N/A

Pressure: 29.74 "Hg (27.87 "Hg at 581m altitude)

Humidity: 31%

Dew Point: 55 °F

Location of Alice SpringsLocation

Past Weather in Alice Springs — Graph

°F

Alice Springs Temperature Yesterday

Maximum temperature yesterday: 109 °F (at 4:30 pm)
Minimum temperature yesterday: 84 °F (at 5:00 am)
Average temperature yesterday: 98 °F

High & Low Weather Summary for the Past Weeks

 TemperatureHumidityPressure
High113 °F (Jan 3, 4:00 pm)51% (Jan 13, 4:00 am)30.04 "Hg (Jan 13, 4:00 am)
Low64 °F (Jan 8, 6:00 am)5% (Jan 3, 4:33 pm)29.65 "Hg (Jan 2, 4:30 pm)
Average92 °F16%29.85 "Hg
* Reported Jan 2 2:30 am — Jan 17 3:00 am, Alice Springs. Weather by CustomWeather, © 2019

Note: Actual official high and low records may vary slightly from our data, if they occured in-between our weather recording intervals... More about our weather records

Advertising

Alice Springs Weather History for the Previous 24 Hours

Scroll right to see more
 ConditionsComfort  
Time TempWeatherWind HumidityBarometerVisibility
3:00 am
Thu, Jan 17
91 °FClear.10 mph30%29.77 "HgN/A
2:30 am91 °FClear.13 mph32%29.77 "HgN/A
2:00 am93 °FClear.14 mph28%29.77 "HgN/A
1:30 am93 °FClear.16 mph28%29.77 "HgN/A
1:02 am93 °FClear.17 mph28%29.77 "HgN/A
12:30 am95 °FClear.14 mph22%29.77 "HgN/A
12:00 am95 °FClear.12 mph15%29.77 "HgN/A
11:30 pm
Wed, Jan 16
91 °FClear.8 mph16%29.77 "HgN/A
11:00 pm90 °FClear.7 mph17%29.77 "HgN/A
10:30 pm91 °FClear.7 mph16%29.77 "HgN/A
10:00 pm93 °FClear.8 mph14%29.77 "HgN/A
9:30 pm95 °FClear.7 mph14%29.74 "HgN/A
9:00 pm97 °FClear.7 mph13%29.74 "HgN/A
8:30 pm99 °FClear.8 mph12%29.74 "HgN/A
8:00 pm100 °FClear.8 mph12%29.71 "HgN/A
7:30 pm104 °FSunny.10 mph11%29.71 "HgN/A
7:00 pm106 °FSunny.10 mph9%29.68 "HgN/A
6:30 pm108 °FSunny.10 mph10%29.68 "HgN/A
6:00 pm108 °FSunny.7 mph9%29.68 "HgN/A
5:30 pm108 °FSunny.10 mph9%29.68 "HgN/A
5:00 pm108 °FSunny.8 mph9%29.68 "HgN/A
4:30 pm109 °FSunny.12 mph8%29.68 "HgN/A
4:00 pm106 °FSunny.7 mph9%29.68 "HgN/A
3:47 pm108 °FSunny.18 mph8%29.68 "HgN/A
3:30 pm108 °FSunny.6 mph10%29.71 "HgN/A
3:00 pm108 °FSunny.6 mph9%29.71 "HgN/A
2:30 pm106 °FSunny.8 mph9%29.74 "HgN/A
2:00 pm108 °FSunny.7 mph8%29.74 "HgN/A
1:30 pm108 °FSunny.14 mph9%29.77 "HgN/A
1:00 pm108 °FSunny.10 mph9%29.77 "HgN/A
12:30 pm108 °FSunny.13 mph10%29.80 "HgN/A
12:00 pm104 °FSunny.16 mph11%29.80 "HgN/A
11:30 am104 °FPassing clouds.10 mph12%29.83 "HgN/A
11:00 am102 °FPassing clouds.7 mph12%29.83 "HgN/A
10:30 am102 °FPassing clouds.12 mph13%29.86 "HgN/A
9:30 am100 °FSunny.14 mph15%29.86 "Hg10 mi
9:00 am100 °FSunny.15 mph15%29.86 "Hg10 mi
8:30 am97 °FSunny.15 mph16%29.86 "HgN/A
8:00 am97 °FSunny.13 mph16%29.86 "HgN/A
7:30 am95 °FSunny.7 mph16%29.86 "HgN/A
7:00 am91 °FSunny.5 mph18%29.86 "HgN/A
6:30 am84 °FSunny.3 mph22%29.86 "HgN/A
6:00 am88 °FClear.No wind22%29.83 "HgN/A
5:30 am84 °FClear.1 mph23%29.83 "HgN/A
5:00 am84 °FClear.7 mph23%29.80 "HgN/A
4:30 am86 °FClear.6 mph22%29.80 "HgN/A
4:00 am86 °FClear.6 mph22%29.80 "HgN/A
3:30 am88 °FClear.5 mph21%29.80 "HgN/A
3:00 am86 °FClear.7 mph22%29.80 "HgN/A
Weather by CustomWeather, © 2019

See weather overview